Ionia, MI

3:48 AM EDT on May 27, 2017 (GMT -0400)
Ionia

Weather History for KY70 - August, 2013

Change the Weather History Date:

Thursday, August 1, 2013

  Actual Average (KGRR) Record (KGRR)
Temperature  
Mean Temperature 70 °F -  
Max Temperature 79 °F 81 °F 98 °F (1988)
Min Temperature 60 °F 60 °F 48 °F (1947)
Cooling Degree Days 5    
Growing Degree Days 20 (Base 50)    
Moisture  
Dew Point 58 °F    
Average Humidity 72    
Maximum Humidity 98    
Minimum Humidity 40    
Precipitation  
Precipitation 0.03 in - - ()
Sea Level Pressure  
Sea Level Pressure 29.92 in    
Wind  
Wind Speed 7 mph (West)    
Max Wind Speed 18 mph    
Max Gust Speed 26 mph    
Visibility 8 miles    
Events Rain    
Averages and records for this station are not official NWS values.
T = Trace of Precipitation, MM = Missing Value Source: NWS Daily Summary

Daily Weather History Graph

Daily Weather History Graph

Search for Another Location

Airport or City:

Trip Planner

Search our weather history database for the weather conditions in past years. The results will help you decide how hot, cold, wet, or windy it might be!

Date:

Astronomy

Aug. 01, 2013 Rise Set
Actual Time 6:31 AM EDT 9:00 PM EDT
Civil Twilight 5:59 AM EDT 9:32 PM EDT
Nautical Twilight 5:19 AM EDT 10:12 PM EDT
Astronomical Twilight 4:33 AM EDT 10:57 PM EDT
Moon 2:06 AM EDT (8/1) 5:10 PM EDT (8/1)
Length of Visible Light 15h 33m
Length of Day
14h 29m
Waning Crescent, 23% of the Moon is Illuminated
Aug 1
Waning Crescent
Aug 6
New
Aug 14
First Quarter
Aug 20
Full
Aug 28
Last Quarter

Hourly Weather History & Observations

Time (EDT) Temp. Dew Point Humidity Pressure Visibility Wind Dir Wind Speed Gust Speed Precip Events Conditions
12:14 AM 65.3 °F 64.8 °F 98% 29.91 in 3.0 mi West 5.8 mph - N/A   Scattered Clouds
12:34 AM 65.3 °F 64.6 °F 98% 29.91 in 3.0 mi West 5.8 mph - N/A   Mostly Cloudy
12:54 AM 65.5 °F 64.8 °F 98% 29.92 in 3.0 mi West 8.1 mph - N/A   Overcast
1:14 AM 65.3 °F 64.4 °F 97% 29.93 in 3.0 mi West 10.4 mph - N/A   Overcast
1:34 AM 64.6 °F 63.5 °F 96% 29.92 in 4.0 mi West 6.9 mph - N/A   Mostly Cloudy
1:54 AM 64.4 °F 63.0 °F 95% 29.92 in 4.0 mi WNW 5.8 mph - N/A   Clear
2:14 AM 63.7 °F 62.6 °F 96% 29.92 in 4.0 mi West 5.8 mph - N/A   Clear
2:34 AM 63.0 °F 61.9 °F 96% 29.92 in 4.0 mi West 6.9 mph - N/A   Scattered Clouds
2:54 AM 63.1 °F 62.2 °F 97% 29.92 in 4.0 mi West 9.2 mph - N/A   Mostly Cloudy
3:14 AM 63.1 °F 61.9 °F 96% 29.92 in 5.0 mi West 10.4 mph - N/A   Overcast
3:34 AM 62.6 °F 61.3 °F 96% 29.92 in 5.0 mi West 8.1 mph - N/A   Overcast
3:54 AM 62.8 °F 61.7 °F 96% 29.92 in 5.0 mi West 10.4 mph 16.1 mph N/A   Overcast
4:14 AM 62.8 °F 61.7 °F 96% 29.92 in 5.0 mi WNW 10.4 mph - N/A   Overcast
4:34 AM 63.1 °F 61.9 °F 96% 29.91 in 5.0 mi WNW 8.1 mph - N/A   Overcast
4:54 AM 63.5 °F 61.9 °F 94% 29.91 in 5.0 mi WNW 5.8 mph - N/A   Overcast
5:14 AM 63.1 °F 61.7 °F 95% 29.90 in 5.0 mi WNW 6.9 mph - N/A   Overcast
5:34 AM 62.8 °F 61.7 °F 96% 29.91 in 5.0 mi Calm Calm - N/A   Overcast
5:54 AM 62.8 °F 61.9 °F 97% 29.92 in 4.0 mi Calm Calm - N/A   Overcast
6:14 AM 63.5 °F 61.9 °F 94% 29.92 in 5.0 mi NW 4.6 mph - N/A   Overcast
6:34 AM 63.5 °F 61.9 °F 94% 29.92 in 5.0 mi WNW 4.6 mph - N/A   Overcast
6:54 AM 63.5 °F 61.9 °F 94% 29.93 in 4.0 mi WNW 3.5 mph - N/A   Overcast
7:14 AM 63.5 °F 62.1 °F 95% 29.93 in 3.0 mi Calm Calm - N/A   Overcast
7:34 AM 63.7 °F 62.1 °F 94% 29.93 in 4.0 mi Calm Calm - N/A   Overcast
7:54 AM 63.9 °F 62.1 °F 94% 29.93 in 5.0 mi WNW 4.6 mph - N/A   Overcast
8:14 AM 64.4 °F 62.1 °F 92% 29.93 in 5.0 mi West 3.5 mph - N/A   Overcast
8:34 AM 65.1 °F 62.2 °F 90% 29.93 in 7.0 mi West 5.8 mph - N/A   Overcast
8:54 AM 66.4 °F 62.1 °F 86% 29.93 in 10.0 mi West 5.8 mph - N/A   Mostly Cloudy
9:14 AM 66.9 °F 62.2 °F 85% 29.94 in 10.0 mi WNW 5.8 mph - N/A   Mostly Cloudy
9:34 AM 68.0 °F 62.6 °F 83% 29.93 in 10.0 mi West 5.8 mph - N/A   Scattered Clouds
9:54 AM 67.6 °F 62.2 °F 83% 29.93 in 10.0 mi West 5.8 mph - N/A   Scattered Clouds
10:14 AM 70.0 °F 61.7 °F 75% 29.93 in 10.0 mi West 6.9 mph - N/A   Scattered Clouds
10:34 AM 70.7 °F 62.1 °F 74% 29.93 in 10.0 mi WNW 4.6 mph - N/A   Scattered Clouds
10:54 AM 71.6 °F 62.2 °F 72% 29.92 in 10.0 mi West 4.6 mph - N/A   Clear
11:14 AM 73.0 °F 61.7 °F 67% 29.92 in 10.0 mi West 3.5 mph - N/A   Clear
11:34 AM 73.8 °F 62.2 °F 67% 29.92 in 10.0 mi WSW 3.5 mph - N/A   Clear
11:54 AM 73.4 °F 61.3 °F 66% 29.92 in 10.0 mi WSW 5.8 mph - N/A   Scattered Clouds
12:14 PM 74.8 °F 60.4 °F 61% 29.92 in 7.0 mi SSW 5.8 mph - N/A   Scattered Clouds
12:34 PM 76.6 °F 59.9 °F 56% 29.93 in 10.0 mi West 4.6 mph - N/A   Mostly Cloudy
12:54 PM 76.8 °F 59.5 °F 55% 29.92 in 10.0 mi WNW 9.2 mph - N/A   Overcast
1:14 PM 76.6 °F 59.5 °F 55% 29.92 in 10.0 mi West 6.9 mph - N/A   Mostly Cloudy
1:34 PM 76.1 °F 55.0 °F 48% 29.92 in 10.0 mi WNW 11.5 mph - N/A   Mostly Cloudy
1:54 PM 77.4 °F 57.2 °F 50% 29.92 in 10.0 mi WNW 12.7 mph - N/A   Scattered Clouds
2:14 PM 78.8 °F 52.3 °F 40% 29.91 in 10.0 mi NW 9.2 mph 17.3 mph N/A   Clear
2:34 PM 79.7 °F 53.1 °F 40% 29.91 in 10.0 mi West 15.0 mph 19.6 mph N/A   Scattered Clouds
2:54 PM 79.3 °F 53.1 °F 40% 29.91 in 10.0 mi West 18.4 mph 21.9 mph N/A   Mostly Cloudy
3:14 PM 69.6 °F 59.4 °F 70% 29.92 in 0.8 mi WNW 10.4 mph 26.5 mph 0.03 in Rain Rain
3:34 PM 72.9 °F 59.2 °F 62% 29.92 in 10.0 mi West 9.2 mph - 0.03 in   Mostly Cloudy
3:54 PM 75.6 °F 59.2 °F 57% 29.91 in 10.0 mi West 12.7 mph 18.4 mph 0.03 in   Scattered Clouds
4:14 PM 76.6 °F 54.3 °F 46% 29.91 in 10.0 mi West 12.7 mph 18.4 mph N/A   Clear
4:34 PM 78.1 °F 51.6 °F 40% 29.91 in 10.0 mi WNW 17.3 mph 23.0 mph N/A   Scattered Clouds
4:54 PM 77.7 °F 51.8 °F 40% 29.91 in 10.0 mi WNW 12.7 mph 20.7 mph N/A   Scattered Clouds
5:14 PM 77.7 °F 51.3 °F 40% 29.92 in 10.0 mi WNW 18.4 mph 24.2 mph N/A   Scattered Clouds
5:34 PM 76.6 °F 50.7 °F 40% 29.92 in 10.0 mi WNW 16.1 mph 24.2 mph N/A   Scattered Clouds
5:54 PM 76.5 °F 51.4 °F 42% 29.92 in 10.0 mi WNW 16.1 mph 21.9 mph N/A   Scattered Clouds
6:14 PM 75.7 °F 50.7 °F 41% 29.92 in 10.0 mi WNW 9.2 mph - N/A   Scattered Clouds
6:34 PM 75.0 °F 50.4 °F 42% 29.91 in 7.0 mi WNW 12.7 mph 20.7 mph N/A   Scattered Clouds
6:54 PM 74.8 °F 52.0 °F 45% 29.91 in 10.0 mi WNW 15.0 mph 18.4 mph N/A   Scattered Clouds
7:14 PM 74.3 °F 52.3 °F 46% 29.91 in 10.0 mi West 10.4 mph - N/A   Scattered Clouds
7:34 PM 73.9 °F 52.3 °F 47% 29.92 in 10.0 mi WNW 10.4 mph 16.1 mph N/A   Scattered Clouds
7:54 PM 72.9 °F 52.5 °F 49% 29.91 in 10.0 mi WNW 9.2 mph - N/A   Clear
8:14 PM 72.0 °F 52.5 °F 50% 29.91 in 10.0 mi WNW 6.9 mph - N/A   Clear
8:34 PM 70.7 °F 53.6 °F 55% 29.92 in 10.0 mi West 4.6 mph - N/A   Clear
8:54 PM 69.4 °F 54.1 °F 58% 29.92 in 10.0 mi WNW 6.9 mph - N/A   Clear
9:14 PM 68.4 °F 54.1 °F 60% 29.92 in 10.0 mi WNW 6.9 mph - N/A   Clear
9:34 PM 67.3 °F 54.7 °F 64% 29.93 in 10.0 mi West 6.9 mph - N/A   Clear
9:54 PM 67.1 °F 54.7 °F 64% 29.93 in 10.0 mi West 6.9 mph - N/A   Clear
10:14 PM 66.2 °F 54.7 °F 66% 29.93 in 10.0 mi West 6.9 mph - N/A   Clear
10:34 PM 64.8 °F 54.7 °F 70% 29.93 in 10.0 mi West 5.8 mph - N/A   Clear
10:54 PM 62.8 °F 54.7 °F 75% 29.93 in 10.0 mi West 5.8 mph - N/A   Clear
11:14 PM 62.2 °F 54.9 °F 77% 29.94 in 10.0 mi West 5.8 mph - N/A   Clear
11:34 PM 61.3 °F 54.5 °F 78% 29.94 in 10.0 mi West 4.6 mph - N/A   Clear
11:54 PM 60.8 °F 54.5 °F 80% 29.95 in 10.0 mi West 4.6 mph - N/A   Clear